Regional Weather Roundup
Issued by NWS Kansas City/Pleasant Hill, MO

Home | Current Version | Previous Version | Graphics & Text | Print | Product List | Glossary Off
Versions: 1 2 3 4 5 6 7 8 9 10 11 12 13 14 15 16 17 18 19 20 21 22 23 24 25 26 27 28 29 30 31 32 33 34 35 36 37 38 39 40 41 42 43 44 45 46 47 48 49 50

000
ASUS43 KEAX 191010
RWREAX

WEATHER ROUNDUP FOR EASTERN KANSAS AND NORTHWEST MISSOURI
NATIONAL WEATHER SERVICE KANSAS CITY/PLEASANT HILL MO
400 AM CST THU JAN 19 2017

KSZ040-057-103>105-MOZ028-029-037-043-191100-
...KANSAS CITY METROPOLITAN AREA...

CITY           SKY/WX    TMP DP  RH WIND       PRES   REMARKS
K.C. INTL      FOG       42  39  89 SE7       29.87F VSB 1
K.C. DOWNTOWN  CLOUDY    43  41  93 E3        29.87F FOG
LEES SUMMIT    CLOUDY    43  42  97 SE3       29.88F FOG
OLATHE - IXD   CLOUDY    42  42 100 SE6       29.87F FOG
OLATHE - OJC   FOG       41  41 100 SE6       29.87F VSB 3/4
LAWRENCE       CLOUDY    42  42 100 E8        29.86F FOG

$$

MOZ001>008-011>017-020>025-030>033-038>040-044>046-053-054-191100-
...NORTHERN AND CENTRAL MISSOURI...

CITY           SKY/WX    TMP DP  RH WIND       PRES   REMARKS
ST. JOSEPH     CLOUDY    41  39  93 S6        29.86F
MOSBY          CLOUDY    41  37  87 CALM      29.89F
WARRENSBURG    CLOUDY    43  39  87 E3        29.89F
WHITEMAN AFB   CLOUDY    46  46 100 S6        29.88F
CLINTON        CLOUDY    45  45 100 CALM      29.90F
SEDALIA        CLOUDY    46  44  93 CALM      29.91F
WARSAW         NOT AVBL
CHILLICOTHE      N/A     39  37  92 CALM      29.91F
KIRKSVILLE     CLOUDY    36  34  92 SE6       29.92F WCI  31

$$

MOZ041-047>049-056>058-063>065-088>090-097-191100-
...EASTERN AND SOUTHERN MISSOURI...

CITY           SKY/WX    TMP DP  RH WIND       PRES   REMARKS
ST. LOUIS INTL CLOUDY    44  39  82 E6        29.97F
SPIRIT OF STL  LGT RAIN  43  40  89 E6        29.96F
COLUMBIA       LGT RAIN  44  43  96 SE6       29.91F FOG
JEFFERSON CITY CLOUDY    44  42  93 SE7       29.93F
ROLLA          CLOUDY    42  42 100 E7        29.90F
OSAGE BEACH    CLOUDY    43  42  97 E3        29.91F
SPRINGFIELD    CLOUDY    44  42  93 SE10      29.88F
BRANSON        FOG       41  41 100 CALM      29.90S VSB 1/4
JOPLIN         CLOUDY    47  46  97 S5        29.89F
WEST PLAINS    FOG       42  41  96 NE3       29.92F VSB 3/4

$$

IAZ060-094-KSZ022-034>040-054-083-096-NEZ052-066-093-191100-
...KANSAS...SOUTHEAST NEBRASKA AND IOWA...

CITY           SKY/WX    TMP DP  RH WIND       PRES   REMARKS
TOPEKA         CLOUDY    42  38  85 E5        29.85F
MANHATTAN      CLOUDY    45  39  79 CALM      29.81F
EMPORIA        CLOUDY    44  43  96 S10       29.83F
CHANUTE        FOG       46  45  96 SE7       29.86F VSB 1/4
WICHITA        CLOUDY    44  43  96 S18       29.80F FOG
OMAHA          PTCLDY    33  29  85 SE5       29.83F WCI  29
LINCOLN        PTCLDY    35  33  92 S12       29.80F WCI  27
FALLS CITY     MOCLDY    36  35  96 SE6       29.84F FOG     WCI  31
LAMONI         CLOUDY    36  35  96 SE7       29.87F WCI  30
DES MOINES     FOG       34  34 100 E6        29.89F VSB 1/4 WCI  29

$$




USA.gov is the U.S. government's official web portal to all federal, state and local government web resources and services.